Weather History for Columbus, GA

Change the Weather History Date:

Monday, September 3, 2012

  Actual Average Record
Temperature  
Mean Temperature 81 °F 80 °F  
Max Temperature 89 °F 90 °F 99 °F (1990)
Min Temperature 72 °F 70 °F 58 °F (1954)
Degree Days  
Heating Degree Days 0 0  
Month to date heating degree days 0 0  
Since 1 July heating degree days 0 0  
Cooling Degree Days 16 15  
Month to date cooling degree days 54 45  
Year to date cooling degree days 2197 1917  
Growing Degree Days 30 (Base 50)    
Moisture  
Dew Point 72 °F    
Average Humidity 78    
Maximum Humidity 94    
Minimum Humidity 61    
Precipitation  
Precipitation 0.92 in 0.11 in 2.48 in (2014)
Month to date precipitation 0.92 0.33  
Year to date precipitation 25.13 33.07  
Sea Level Pressure  
Sea Level Pressure 29.97 in    
Wind  
Wind Speed 5 mph (SW)    
Max Wind Speed 30 mph    
Max Gust Speed 41 mph    
Visibility 7 miles    
Events Fog , Rain , Thunderstorm    
T = Trace of Precipitation, MM = Missing Value Source: NWS Daily Summary

Daily Weather History Graph

Daily Weather History Graph

Search for Another Location

Airport:

Trip Planner

Search our weather history database for the weather conditions in past years. The results will help you decide how hot, cold, wet, or windy it might be!

Date:

Astronomy

Sep. 03, 2012 Rise Set
Actual Time 7:16 AM EDT 8:01 PM EDT
Civil Twilight 6:51 AM EDT 8:25 PM EDT
Nautical Twilight 6:21 AM EDT 8:55 PM EDT
Astronomical Twilight 5:51 AM EDT 9:25 PM EDT
Moon 9:35 PM EDT (9/3) 10:08 AM EDT (9/3)
Length of Visible Light 13h 34m
Length of Day
12h 44m
Waning Gibbous, 90% of the Moon is Illuminated
Sep 3
Waning Gibbous
Sep 8
Last Quarter
Sep 15
New
Sep 22
First Quarter
Sep 29
Full

Hourly Weather History & Observations

Time (EDT) Temp. Heat Index Dew Point Humidity Pressure Visibility Wind Dir Wind Speed Gust Speed Precip Events Conditions
12:51 AM 79.0 °F - 71.1 °F 77% 29.96 in 10.0 mi South 3.5 mph - N/A   Clear
1:51 AM 78.1 °F - 71.1 °F 79% 29.97 in 10.0 mi South 3.5 mph - N/A   Clear
2:51 AM 77.0 °F - 72.0 °F 84% 29.96 in 10.0 mi South 4.6 mph - N/A   Clear
3:51 AM 75.9 °F - 72.0 °F 87% 29.96 in 10.0 mi WSW 3.5 mph - N/A   Clear
4:51 AM 75.9 °F - 72.0 °F 87% 29.96 in 10.0 mi SW 3.5 mph - N/A   Partly Cloudy
5:51 AM 75.9 °F - 72.0 °F 87% 29.97 in 9.0 mi SSW 4.6 mph - N/A   Scattered Clouds
6:29 AM 75.2 °F - 71.6 °F 89% 29.98 in 9.0 mi South 6.9 mph - N/A   Mostly Cloudy
6:51 AM 75.0 °F - 73.0 °F 94% 29.97 in 8.0 mi SW 3.5 mph - N/A   Mostly Cloudy
7:00 AM 75.2 °F - 73.4 °F 94% 29.99 in 8.0 mi SW 4.6 mph - N/A   Overcast
7:48 AM 75.2 °F - 73.4 °F 94% 30.00 in 6.0 mi SSW 5.8 mph - N/A   Overcast
7:51 AM 75.9 °F - 73.0 °F 91% 29.99 in 6.0 mi SW 4.6 mph - N/A   Overcast
8:51 AM 77.0 °F - 73.4 °F 89% 30.00 in 6.0 mi South 5.8 mph - N/A   Overcast
9:51 AM 78.1 °F - 73.9 °F 87% 29.99 in 7.0 mi SW 8.1 mph - N/A   Overcast
10:05 AM 78.8 °F - 73.4 °F 83% 30.00 in 7.0 mi SSW 10.4 mph - N/A   Overcast
10:51 AM 80.1 °F 84.5 °F 73.9 °F 81% 30.00 in 6.0 mi WSW 6.9 mph - N/A   Haze
11:11 AM 80.6 °F 85.4 °F 73.4 °F 79% 30.01 in 6.0 mi SW 8.1 mph - N/A   Haze
11:14 AM 80.6 °F 85.4 °F 73.4 °F 79% 30.01 in 8.0 mi WSW 8.1 mph - N/A   Overcast
11:51 AM 82.0 °F 87.9 °F 73.9 °F 76% 30.01 in 8.0 mi WSW 8.1 mph - N/A   Overcast
12:51 PM 84.9 °F 92.1 °F 73.9 °F 69% 29.99 in 10.0 mi WSW 12.7 mph - N/A   Mostly Cloudy
1:35 PM 86.0 °F 91.8 °F 71.6 °F 62% 29.99 in 9.0 mi West 12.7 mph - N/A   Scattered Clouds
1:42 PM 86.0 °F 91.8 °F 71.6 °F 62% 29.99 in 9.0 mi WSW 12.7 mph - N/A   Overcast
1:51 PM 87.8 °F 95.6 °F 73.4 °F 62% 29.98 in 9.0 mi WSW 8.1 mph - N/A   Mostly Cloudy
2:35 PM 87.8 °F 93.8 °F 71.6 °F 58% 29.97 in 9.0 mi West 6.9 mph - N/A   Mostly Cloudy
2:51 PM 86.0 °F 92.2 °F 72.0 °F 63% 29.96 in 10.0 mi WNW 11.5 mph - N/A   Mostly Cloudy
3:51 PM 84.9 °F 90.1 °F 71.1 °F 63% 29.93 in 10.0 mi WNW 5.8 mph - N/A   Partly Cloudy
3:58 PM 84.2 °F 89.6 °F 71.6 °F 66% 29.95 in 10.0 mi WNW 6.9 mph - N/A Thunderstorm Partly Cloudy
4:33 PM 80.6 °F 84.6 °F 71.6 °F 74% 29.98 in 0.8 mi WNW 29.9 mph 41.4 mph N/A Thunderstorm Unknown
4:35 PM 75.2 °F - 71.6 °F 89% 29.97 in 0.2 mi WNW 18.4 mph 41.4 mph 0.00 in Rain , Thunderstorm Light Thunderstorms and Rain
4:44 PM 73.4 °F - 69.8 °F 88% 29.96 in 0.5 mi WNW 9.2 mph 27.6 mph 0.35 in Fog , Rain , Thunderstorm Light Thunderstorms and Rain
4:51 PM 73.0 °F - 69.1 °F 87% 29.94 in 0.8 mi WNW 4.6 mph - 0.38 in Rain , Thunderstorm Heavy Thunderstorms and Rain
5:02 PM 73.4 °F - 69.8 °F 88% 29.96 in 2.0 mi Calm Calm - 0.08 in Rain , Thunderstorm Light Thunderstorms and Rain
5:10 PM 73.4 °F - 71.6 °F 94% 29.96 in 4.0 mi West 3.5 mph - 0.08 in Rain , Thunderstorm Light Rain
5:24 PM 73.4 °F - 69.8 °F 88% 29.97 in 3.0 mi SW 3.5 mph - 0.09 in Rain Rain
5:43 PM 73.4 °F - 69.8 °F 88% 29.96 in 2.0 mi Calm Calm - 0.14 in Rain Rain
5:51 PM 73.0 °F - 70.0 °F 90% 29.94 in 2.0 mi Calm Calm - 0.16 in Rain Rain
6:25 PM 73.4 °F - 71.6 °F 94% 29.95 in 3.0 mi SE 3.5 mph - 0.09 in Rain Light Rain
6:51 PM 73.0 °F - 72.0 °F 96% 29.94 in 5.0 mi SSE 4.6 mph - 0.12 in Rain Light Rain
7:51 PM 73.0 °F - 72.0 °F 96% 29.95 in 9.0 mi South 5.8 mph - 0.00 in   Mostly Cloudy
8:36 PM 73.4 °F - 71.6 °F 94% 29.98 in 2.0 mi South 4.6 mph - 0.07 in Rain Rain
8:41 PM 73.4 °F - 71.6 °F 94% 29.97 in 4.0 mi South 5.8 mph - 0.12 in Rain Light Rain
8:45 PM 73.4 °F - 71.6 °F 94% 29.96 in 6.0 mi SSE 6.9 mph - 0.13 in Rain Light Rain
8:51 PM 73.0 °F - 71.1 °F 93% 29.95 in 6.0 mi SSE 4.6 mph - 0.14 in Rain Light Rain
9:51 PM 73.0 °F - 71.1 °F 93% 29.95 in 10.0 mi SE 3.5 mph - 0.12 in Rain Light Rain
10:51 PM 73.0 °F - 71.1 °F 93% 29.95 in 10.0 mi Calm Calm - 0.00 in   Mostly Cloudy
11:33 PM 73.4 °F - 71.6 °F 94% 29.96 in 8.0 mi South 4.6 mph - N/A   Mostly Cloudy
11:51 PM 73.0 °F - 71.1 °F 93% 29.94 in 8.0 mi South 3.5 mph - N/A   Mostly Cloudy